Location: Eschentzwiller
(47.7125°N, 7.3981°E)
Time: 00:55:35
(UTC+00:00)

USA 308 - Pass Details

Date: 27 October 2020
Orbit: 571 x 578 km, 54.0° (Epoch: 23 November)

Event Time Altitude Azimuth Distance (km) Brightness Sun altitude
Rises 16:59:07 0° 294° (WNW) 2,788 7.4 -7.2°
Reaches altitude 10° 17:01:29 10° 302° (WNW) 1,887 6.3 -7.5°
Maximum altitude 17:05:34 41° 13° (NNE) 841 3.6 -8.2°
Enters shadow 17:09:21 12° 83° (E) 1,777 4.7 -8.8°
